| time (UTC) | temp F | wind direction | speed knots | gust knots | rain 1hr in | rain 24hr in | rain mn in | humidity % | barometer mb |
| 20260506231516 | 68 | 237 | 4.3 | 8.7 | 0.00 | 0.00 | 0.00 | 73 | 1007.8 |
| 20260506230014 | 68 | 174 | 1.7 | 7.0 | 0.00 | 0.00 | 0.00 | 73 | 1007.9 |
| 20260506224514 | 68 | 185 | 3.5 | 10.4 | 0.00 | 0.00 | 0.00 | 72 | 1008.0 |
| 20260506223003 | 69 | 155 | 3.5 | 8.7 | 0.00 | 0.00 | 0.00 | 72 | 1007.9 |
| 20260506221526 | 69 | 218 | 3.5 | 10.4 | 0.00 | 0.00 | 0.00 | 72 | 1007.9 |
| 20260506220024 | 68 | 282 | 0.9 | 11.3 | 0.00 | 0.00 | 0.00 | 73 | 1008.0 |
| 20260506214521 | 68 | 231 | 2.6 | 10.4 | 0.00 | 0.00 | 0.00 | 73 | 1007.9 |
| 20260506213021 | 68 | 207 | 4.3 | 11.3 | 0.00 | 0.00 | 0.00 | 73 | 1007.7 |
| 20260506211517 | 68 | 259 | 2.6 | 11.3 | 0.00 | 0.00 | 0.00 | 73 | 1007.6 |
| 20260506210012 | 68 | 259 | 3.5 | 9.6 | 0.00 | 0.00 | 0.00 | 74 | 1007.3 |
| 20260506204512 | 67 | 194 | 3.5 | 8.7 | 0.00 | 0.00 | 0.00 | 75 | 1007.4 |
| 20260506203033 | 66 | 285 | 3.5 | 7.0 | 0.00 | 0.00 | 0.00 | 76 | 1007.4 |
| 20260506201526 | 66 | 278 | 4.3 | 10.4 | 0.00 | 0.00 | 0.00 | 76 | 1007.6 |
| 20260506200026 | 66 | 218 | 3.5 | 9.6 | 0.00 | 0.00 | 0.00 | 77 | 1007.7 |
| 20260506194522 | 65 | 248 | 2.6 | 7.0 | 0.00 | 0.00 | 0.00 | 79 | 1007.8 |
| 20260506193019 | 65 | 206 | 1.7 | 9.6 | 0.00 | 0.00 | 0.00 | 80 | 1007.9 |
| 20260506191517 | 65 | 217 | 4.3 | 13.0 | 0.00 | 0.00 | 0.00 | 80 | 1008.0 |
| 20260506190016 | 66 | 248 | 6.1 | 13.9 | 0.00 | 0.00 | 0.00 | 74 | 1008.1 |
| 20260506184508 | 66 | 219 | 5.2 | 14.8 | 0.00 | 0.00 | 0.00 | 75 | 1008.2 |
| 20260506183009 | 67 | 164 | 7.0 | 16.5 | 0.00 | 0.00 | 0.00 | 72 | 1008.2 |
| 20260506181526 | 70 | 274 | 9.6 | 16.5 | 0.00 | 0.00 | 0.00 | 64 | 1008.2 |
| 20260506180022 | 70 | 214 | 7.0 | 18.2 | 0.00 | 0.00 | 0.00 | 64 | 1008.2 |
| 20260506174522 | 70 | 235 | 7.0 | 16.5 | 0.00 | 0.00 | 0.00 | 63 | 1008.4 |
| 20260506173021 | 70 | 190 | 7.0 | 13.9 | 0.00 | 0.00 | 0.00 | 64 | 1008.5 |
| 20260506171517 | 71 | 190 | 7.0 | 14.8 | 0.00 | 0.00 | 0.00 | 64 | 1008.8 |
| 20260506170014 | 69 | 209 | 5.2 | 9.6 | 0.00 | 0.00 | 0.00 | 66 | 1008.9 |
| 20260506164510 | 69 | 220 | 4.3 | 11.3 | 0.00 | 0.00 | 0.00 | 66 | 1009.4 |
| 20260506163010 | 69 | 238 | 4.3 | 13.9 | 0.00 | 0.00 | 0.00 | 66 | 1009.7 |
| 20260506161505 | 70 | 200 | 2.6 | 10.4 | 0.00 | 0.00 | 0.00 | 64 | 1010.0 |
| 20260506160004 | 70 | 226 | 7.8 | 18.2 | 0.00 | 0.00 | 0.00 | 59 | 1010.0 |
| 20260506154512 | 72 | 266 | 4.3 | 16.5 | 0.00 | 0.00 | 0.00 | 58 | 1010.0 |
| 20260506153004 | 71 | 219 | 7.8 | 15.6 | 0.00 | 0.00 | 0.00 | 57 | 1010.0 |
| 20260506151519 | 71 | 224 | 6.1 | 16.5 | 0.00 | 0.00 | 0.00 | 57 | 1010.0 |
| 20260506150014 | 71 | 218 | 8.7 | 17.4 | 0.00 | 0.00 | 0.00 | 57 | 1010.0 |
| 20260506144511 | 72 | 202 | 3.5 | 21.7 | 0.00 | 0.00 | 0.00 | 57 | 1009.9 |
| 20260506143008 | 72 | 188 | 8.7 | 14.8 | 0.00 | 0.00 | 0.00 | 57 | 1009.9 |
| 20260506141506 | 71 | 221 | 8.7 | 15.6 | 0.00 | 0.00 | 0.00 | 58 | 1009.8 |
| 20260506140010 | 71 | 141 | 6.1 | 13.9 | 0.00 | 0.00 | 0.00 | 61 | 1009.8 |
| 20260506134506 | 71 | 141 | 7.0 | 13.9 | 0.00 | 0.00 | 0.00 | 60 | 1010.1 |
| 20260506133021 | 70 | 224 | 7.0 | 12.2 | 0.00 | 0.00 | 0.00 | 62 | 1010.3 |
| 20260506131520 | 69 | 198 | 6.1 | 15.6 | 0.00 | 0.00 | 0.00 | 65 | 1010.6 |
| 20260506130017 | 69 | 245 | 7.0 | 11.3 | 0.00 | 0.00 | 0.00 | 67 | 1010.3 |
| 20260506124512 | 67 | 218 | 4.3 | 12.2 | 0.00 | 0.00 | 0.00 | 70 | 1010.4 |
| 20260506123010 | 65 | 183 | 3.5 | 10.4 | 0.00 | 0.00 | 0.00 | 73 | 1010.7 |
| 20260506121508 | 65 | 209 | 5.2 | 13.9 | 0.00 | 0.00 | 0.00 | 73 | 1010.6 |
| 20260506120012 | 64 | 203 | 5.2 | 10.4 | 0.00 | 0.00 | 0.00 | 74 | 1010.8 |
| 20260506114525 | 64 | 236 | 6.1 | 12.2 | 0.00 | 0.00 | 0.00 | 75 | 1010.8 |
| 20260506113020 | 63 | 211 | 4.3 | 12.2 | 0.00 | 0.00 | 0.00 | 77 | 1010.9 |
| 20260506111525 | 62 | 228 | 4.3 | 10.4 | 0.00 | 0.00 | 0.00 | 79 | 1011.1 |
| 20260506110018 | 62 | 219 | 6.1 | 13.0 | 0.00 | 0.00 | 0.00 | 80 | 1011.0 |
| 20260506104510 | 61 | 158 | 3.5 | 11.3 | 0.00 | 0.00 | 0.00 | 81 | 1011.0 |
| 20260506103008 | 60 | 149 | 2.6 | 10.4 | 0.00 | 0.00 | 0.00 | 83 | 1011.0 |
| 20260506101505 | 60 | 226 | 3.5 | 7.0 | 0.00 | 0.00 | 0.00 | 83 | 1010.8 |
| 20260506100028 | 60 | 212 | 3.5 | 7.0 | 0.00 | 0.00 | 0.00 | 83 | 1010.7 |
| 20260506094523 | 61 | 198 | 4.3 | 9.6 | 0.00 | 0.00 | 0.00 | 82 | 1010.7 |
| 20260506093023 | 61 | 186 | 5.2 | 11.3 | 0.00 | 0.00 | 0.00 | 82 | 1010.7 |
| 20260506091518 | 61 | 233 | 5.2 | 8.7 | 0.00 | 0.00 | 0.00 | 82 | 1010.8 |
| 20260506090015 | 61 | 214 | 3.5 | 12.2 | 0.00 | 0.00 | 0.00 | 81 | 1011.0 |
| 20260506084517 | 61 | 186 | 4.3 | 9.6 | 0.00 | 0.00 | 0.00 | 81 | 1010.9 |
| 20260506083016 | 62 | 205 | 5.2 | 12.2 | 0.00 | 0.00 | 0.00 | 80 | 1011.0 |
| 20260506081528 | 62 | 202 | 1.7 | 13.0 | 0.00 | 0.00 | 0.00 | 80 | 1011.0 |
| 20260506073005 | 62 | 212 | 3.5 | 11.3 | 0.00 | 0.00 | 0.00 | 79 | 1011.2 |
| 20260506071504 | 63 | 184 | 2.6 | 9.6 | 0.00 | 0.00 | 0.00 | 78 | 1011.4 |
| 20260506061506 | 63 | 199 | 2.6 | 9.6 | 0.00 | 0.00 | 0.00 | 77 | 1011.4 |
| 20260506044515 | 65 | 203 | 4.3 | 8.7 | 0.00 | 0.00 | 0.00 | 70 | 1011.7 |
| 20260506043008 | 66 | 186 | 4.3 | 10.4 | 0.00 | 0.00 | 0.00 | 69 | 1011.7 |
| 20260506041509 | 66 | 159 | 3.5 | 11.3 | 0.00 | 0.00 | 0.00 | 69 | 1011.7 |
| 20260506040004 | 66 | 193 | 6.1 | 14.8 | 0.00 | 0.00 | 0.00 | 68 | 1011.7 |
| 20260506034506 | 66 | 215 | 6.1 | 12.2 | 0.00 | 0.00 | 0.00 | 68 | 1011.6 |
| 20260506033012 | 66 | 159 | 4.3 | 13.0 | 0.00 | 0.00 | 0.00 | 67 | 1011.8 |
| 20260506031510 | 66 | 200 | 5.2 | 11.3 | 0.00 | 0.00 | 0.00 | 67 | 1011.7 |
| 20260506030012 | 67 | 207 | 7.8 | 14.8 | 0.00 | 0.00 | 0.00 | 66 | 1011.7 |
| 20260506024510 | 67 | 113 | 5.2 | 13.9 | 0.00 | 0.00 | 0.00 | 66 | 1011.6 |
| 20260506023012 | 67 | 221 | 5.2 | 14.8 | 0.00 | 0.00 | 0.00 | 65 | 1011.8 |
| 20260506021509 | 67 | 230 | 7.8 | 14.8 | 0.00 | 0.00 | 0.00 | 63 | 1011.8 |
| 20260506020006 | 68 | 199 | 4.3 | 12.2 | 0.00 | 0.00 | 0.00 | 61 | 1011.8 |
| 20260506014515 | 68 | 229 | 6.1 | 13.0 | 0.00 | 0.00 | 0.00 | 60 | 1011.6 |
| 20260506013033 | 68 | 168 | 5.2 | 11.3 | 0.00 | 0.00 | 0.00 | 60 | 1011.6 |
| 20260506011523 | 68 | 205 | 7.0 | 12.2 | 0.00 | 0.00 | 0.00 | 59 | 1011.5 |
| 20260506010016 | 68 | 233 | 6.1 | 14.8 | 0.00 | 0.00 | 0.00 | 59 | 1011.3 |
| 20260506004516 | 69 | 224 | 7.0 | 12.2 | 0.00 | 0.00 | 0.00 | 58 | 1011.1 |
| 20260506003012 | 69 | 153 | 6.1 | 16.5 | 0.00 | 0.00 | 0.00 | 56 | 1011.1 |
| 20260506001512 | 70 | 208 | 4.3 | 12.2 | 0.00 | 0.00 | 0.00 | 55 | 1011.0 |
| 20260506000017 | 71 | 243 | 7.8 | 14.8 | 0.00 | 0.00 | 0.00 | 54 | 1010.7 |
| 20260505234518 | 72 | 255 | 5.2 | 13.0 | 0.00 | 0.00 | 0.00 | 52 | 1010.6 |
| 20260505233025 | 73 | 161 | 7.0 | 13.9 | 0.00 | 0.00 | 0.00 | 50 | 1010.1 |